timestamp,wind_dir_avg,wind_spd_avg,wind_spd_max_dir,wind_spd_gust,battery_voltage,lat,long
2023-01-27 00:04:00+00:00,183.0,14.98,182.0,17.42,12.41,47.59359,-54.27349
2023-01-27 00:14:00+00:00,181.0,14.65,183.0,18.4,12.33,47.59359,-54.27349
2023-01-27 00:24:00+00:00,181.0,14.83,179.0,17.66,12.33,47.59359,-54.27349
2023-01-27 00:34:00+00:00,181.0,13.8,182.0,16.4,12.33,47.59359,-54.27349
2023-01-27 00:44:00+00:00,165.0,15.83,161.0,19.59,12.33,47.59359,-54.27349
2023-01-27 00:54:00+00:00,175.0,17.74,160.0,23.7,12.33,47.59359,-54.27349
2023-01-27 01:04:00+00:00,171.0,15.9,161.0,19.16,12.33,47.59359,-54.27349
2023-01-27 01:14:01+00:00,166.0,17.48,160.0,20.67,12.41,47.59359,-54.27349
2023-01-27 01:24:01+00:00,173.0,18.17,165.0,22.87,12.41,47.59359,-54.27349
2023-01-27 01:34:01+00:00,169.0,21.08,161.0,24.19,12.41,47.59359,-54.27349
2023-01-27 01:44:01+00:00,175.0,21.32,183.0,24.87,12.41,47.59359,-54.27349
2023-01-27 01:54:01+00:00,173.0,20.13,183.0,24.32,12.41,47.59359,-54.27349
2023-01-27 02:04:01+00:00,171.0,20.88,183.0,24.37,12.41,47.59359,-54.27349
2023-01-27 02:14:00+00:00,176.0,20.68,163.0,26.63,12.33,47.59359,-54.27349
2023-01-27 02:24:00+00:00,174.0,21.22,164.0,27.82,12.33,47.59359,-54.27349
2023-01-27 02:34:00+00:00,167.0,19.63,162.0,24.16,12.33,47.59359,-54.27349
2023-01-27 02:44:00+00:00,166.0,21.41,170.0,24.7,12.33,47.59359,-54.27349
2023-01-27 02:54:00+00:00,165.0,21.82,164.0,25.21,12.33,47.59359,-54.27349
2023-01-27 03:04:00+00:00,172.0,18.4,163.0,23.91,12.33,47.59359,-54.27349
2023-01-27 03:14:00+00:00,165.0,19.1,159.0,22.88,12.25,47.59359,-54.27349
2023-01-27 03:24:00+00:00,165.0,20.21,163.0,25.53,12.25,47.59359,-54.27349
2023-01-27 03:34:00+00:00,170.0,19.2,161.0,23.64,12.25,47.59359,-54.27349
2023-01-27 03:44:00+00:00,163.0,21.51,162.0,25.56,12.25,47.59359,-54.27349
2023-01-27 03:54:00+00:00,168.0,18.86,172.0,23.0,12.25,47.59359,-54.27349
2023-01-27 04:04:00+00:00,171.0,21.2,167.0,24.92,12.25,47.59359,-54.27349
2023-01-27 04:14:00+00:00,174.0,21.64,173.0,25.57,12.25,47.59359,-54.27349
2023-01-27 04:24:00+00:00,178.0,24.05,167.0,29.58,12.25,47.59359,-54.27349
2023-01-27 04:34:00+00:00,177.0,22.28,181.0,27.2,12.25,47.59359,-54.27349
2023-01-27 04:44:00+00:00,179.0,18.97,178.0,22.55,12.25,47.59359,-54.27349
2023-01-27 04:54:00+00:00,178.0,22.61,183.0,28.21,12.25,47.59359,-54.27349
2023-01-27 05:04:00+00:00,181.0,21.79,184.0,29.17,12.25,47.59359,-54.27349
2023-01-27 05:14:01+00:00,185.0,20.29,192.0,24.16,12.33,47.59359,-54.27349
2023-01-27 05:24:01+00:00,185.0,21.02,191.0,24.59,12.33,47.59359,-54.27349
2023-01-27 05:34:01+00:00,185.0,25.24,180.0,30.92,12.33,47.59359,-54.27349
2023-01-27 05:44:01+00:00,187.0,25.16,185.0,29.31,12.33,47.59359,-54.27349
2023-01-27 05:54:01+00:00,188.0,24.38,189.0,33.3,12.33,47.59359,-54.27349
2023-01-27 06:04:01+00:00,189.0,25.47,186.0,29.83,12.33,47.59359,-54.27349
2023-01-27 06:14:00+00:00,190.0,23.31,189.0,27.02,12.33,47.59359,-54.27349
2023-01-27 06:24:00+00:00,187.0,26.08,184.0,30.62,12.33,47.59359,-54.27349
2023-01-27 06:34:00+00:00,193.0,20.76,189.0,29.78,12.33,47.59359,-54.27349
2023-01-27 06:44:00+00:00,195.0,26.3,187.0,34.49,12.33,47.59359,-54.27349
2023-01-27 06:54:00+00:00,202.0,24.75,202.0,31.79,12.33,47.59359,-54.27349
2023-01-27 07:04:00+00:00,206.0,24.99,206.0,29.84,12.33,47.59359,-54.27349
2023-01-27 07:14:00+00:00,209.0,20.67,212.0,24.58,12.33,47.59359,-54.27349
2023-01-27 07:24:00+00:00,213.0,19.04,212.0,22.24,12.33,47.59359,-54.27349
2023-01-27 07:34:00+00:00,207.0,19.84,211.0,24.56,12.33,47.59359,-54.27349
2023-01-27 07:44:00+00:00,208.0,18.36,216.0,23.61,12.33,47.59359,-54.27349
2023-01-27 07:54:00+00:00,207.0,17.16,217.0,20.65,12.33,47.59359,-54.27349
2023-01-27 08:04:00+00:00,200.0,17.03,210.0,20.54,12.33,47.59359,-54.27349
2023-01-27 08:14:00+00:00,210.0,19.89,212.0,24.87,12.25,47.59359,-54.27349
2023-01-27 08:24:00+00:00,221.0,14.33,224.0,18.17,12.25,47.59359,-54.27349
2023-01-27 08:34:00+00:00,217.0,15.13,222.0,19.76,12.25,47.59359,-54.27349
2023-01-27 08:44:00+00:00,221.0,14.72,223.0,18.08,12.25,47.59359,-54.27349
2023-01-27 08:54:00+00:00,219.0,14.29,226.0,18.27,12.25,47.59359,-54.27349
2023-01-27 09:04:00+00:00,218.0,13.55,225.0,17.02,12.25,47.59359,-54.27349
2023-01-27 09:14:00+00:00,221.0,15.98,224.0,18.25,12.33,47.59359,-54.27349
2023-01-27 09:24:00+00:00,221.0,14.61,225.0,17.23,12.33,47.59359,-54.27349
2023-01-27 09:34:00+00:00,232.0,14.21,234.0,16.53,12.33,47.59359,-54.27349
2023-01-27 09:44:00+00:00,237.0,14.84,236.0,17.12,12.33,47.59359,-54.27349
2023-01-27 09:54:00+00:00,232.0,14.08,237.0,16.62,12.33,47.59359,-54.27349
2023-01-27 10:04:00+00:00,230.0,14.0,233.0,16.51,12.33,47.59359,-54.27349
2023-01-27 10:14:01+00:00,232.0,12.24,236.0,16.08,12.33,47.59359,-54.27349
2023-01-27 10:24:01+00:00,232.0,11.13,238.0,15.2,12.33,47.59359,-54.27349
2023-01-27 10:34:01+00:00,228.0,10.45,239.0,14.42,12.33,47.59359,-54.27349
2023-01-27 10:44:01+00:00,228.0,10.76,235.0,13.78,12.33,47.59359,-54.27349
2023-01-27 10:54:01+00:00,231.0,12.55,238.0,15.05,12.33,47.59359,-54.27349
2023-01-27 11:04:01+00:00,231.0,13.54,224.0,16.7,12.33,47.59359,-54.27349
2023-01-27 11:14:00+00:00,229.0,12.98,232.0,15.35,12.25,47.59359,-54.27349
2023-01-27 11:24:00+00:00,220.0,9.74,218.0,10.99,12.25,47.59359,-54.27349
2023-01-27 11:34:00+00:00,219.0,11.15,219.0,12.85,12.25,47.59359,-54.27349
2023-01-27 11:44:00+00:00,226.0,11.15,233.0,14.08,12.25,47.59359,-54.27349
2023-01-27 11:54:00+00:00,221.0,9.09,224.0,10.96,12.25,47.59359,-54.27349
2023-01-27 12:04:00+00:00,223.0,10.4,218.0,12.02,12.25,47.59359,-54.27349
2023-01-27 12:14:00+00:00,223.0,10.78,225.0,12.49,12.25,47.59359,-54.27349
2023-01-27 12:24:00+00:00,215.0,10.3,212.0,11.4,12.25,47.59359,-54.27349
2023-01-27 12:34:00+00:00,214.0,11.6,210.0,12.97,12.25,47.59359,-54.27349
2023-01-27 12:44:00+00:00,217.0,10.94,220.0,12.24,12.25,47.59359,-54.27349
2023-01-27 12:54:00+00:00,218.0,11.03,218.0,12.99,12.25,47.59359,-54.27349
2023-01-27 13:04:00+00:00,229.0,11.53,227.0,14.27,12.25,47.59359,-54.27349
2023-01-27 13:14:00+00:00,232.0,14.44,229.0,16.54,13.92,47.59359,-54.27349
2023-01-27 13:24:00+00:00,232.0,12.25,232.0,15.74,13.92,47.59359,-54.27349
2023-01-27 13:34:00+00:00,226.0,12.04,220.0,15.88,13.92,47.59359,-54.27349
2023-01-27 13:44:00+00:00,216.0,11.28,212.0,13.29,13.92,47.59359,-54.27349
2023-01-27 13:54:00+00:00,214.0,12.49,212.0,15.19,13.92,47.59359,-54.27349
2023-01-27 14:04:00+00:00,214.0,12.42,215.0,14.26,13.92,47.59359,-54.27349
2023-01-27 14:14:00+00:00,213.0,13.14,217.0,15.07,12.73,47.59359,-54.27349
2023-01-27 14:24:00+00:00,220.0,11.94,220.0,13.9,12.73,47.59359,-54.27349
2023-01-27 14:34:00+00:00,215.0,12.09,215.0,14.08,12.73,47.59359,-54.27349
2023-01-27 14:44:00+00:00,215.0,12.64,215.0,14.83,12.73,47.59359,-54.27349
2023-01-27 14:54:00+00:00,223.0,12.3,229.0,13.89,12.73,47.59359,-54.27349
2023-01-27 15:04:00+00:00,230.0,11.36,232.0,14.6,12.73,47.59359,-54.27349
2023-01-27 15:14:00+00:00,224.0,11.94,221.0,14.46,13.05,47.59359,-54.27349
2023-01-27 15:24:00+00:00,217.0,12.21,213.0,13.23,13.05,47.59359,-54.27349
2023-01-27 15:34:00+00:00,215.0,12.75,211.0,15.16,13.05,47.59359,-54.27349
2023-01-27 15:44:00+00:00,218.0,11.57,218.0,13.12,13.05,47.59359,-54.27349
2023-01-27 15:54:00+00:00,215.0,13.29,212.0,15.05,13.05,47.59359,-54.27349
2023-01-27 16:04:00+00:00,215.0,13.63,211.0,15.37,13.05,47.59359,-54.27349
2023-01-27 16:14:00+00:00,221.0,10.8,228.0,12.63,13.37,47.59359,-54.27349
2023-01-27 16:24:00+00:00,225.0,14.67,223.0,17.51,13.37,47.59359,-54.27349
2023-01-27 16:34:00+00:00,220.0,12.13,228.0,13.38,13.37,47.59359,-54.27349
2023-01-27 16:44:00+00:00,220.0,11.45,216.0,13.51,13.37,47.59359,-54.27349
2023-01-27 16:54:00+00:00,227.0,13.44,236.0,18.85,13.37,47.59359,-54.27349
2023-01-27 17:04:00+00:00,227.0,11.37,231.0,13.47,13.37,47.59359,-54.27349
2023-01-27 17:14:00+00:00,226.0,10.5,225.0,11.86,13.13,47.59359,-54.27349
2023-01-27 17:24:00+00:00,231.0,11.51,237.0,13.26,13.13,47.59359,-54.27349
2023-01-27 17:34:00+00:00,238.0,13.33,234.0,14.92,13.13,47.59359,-54.27349
2023-01-27 17:44:00+00:00,231.0,9.71,235.0,11.34,13.13,47.59359,-54.27349
2023-01-27 17:54:00+00:00,234.0,8.96,228.0,10.07,13.13,47.59359,-54.27349
2023-01-27 18:04:00+00:00,256.0,9.21,254.0,10.2,13.13,47.59359,-54.27349
2023-01-27 18:14:00+00:00,255.0,13.87,256.0,17.44,12.81,47.59359,-54.27349
2023-01-27 18:24:00+00:00,256.0,11.27,261.0,13.52,12.81,47.59359,-54.27349
2023-01-27 18:34:00+00:00,257.0,10.09,256.0,11.79,12.81,47.59359,-54.27349
2023-01-27 18:44:00+00:00,250.0,8.8,256.0,10.26,12.81,47.59359,-54.27349
2023-01-27 18:54:00+00:00,258.0,12.36,259.0,17.87,12.81,47.59359,-54.27349
2023-01-27 19:04:00+00:00,279.0,7.83,281.0,8.67,12.81,47.59359,-54.27349
2023-01-27 19:14:00+00:00,268.0,8.68,265.0,9.63,12.65,47.59359,-54.27349
2023-01-27 19:24:00+00:00,274.0,10.13,271.0,11.42,12.65,47.59359,-54.27349
2023-01-27 19:34:00+00:00,257.0,7.8,251.0,10.6,12.65,47.59359,-54.27349
2023-01-27 19:44:00+00:00,256.0,10.22,257.0,11.85,12.65,47.59359,-54.27349
2023-01-27 19:54:00+00:00,260.0,9.43,260.0,10.54,12.65,47.59359,-54.27349
2023-01-27 20:04:00+00:00,268.0,9.68,262.0,10.95,12.65,47.59359,-54.27349
2023-01-27 20:14:01+00:00,251.0,10.97,257.0,13.65,12.41,47.59359,-54.27349
2023-01-27 20:24:01+00:00,249.0,10.6,250.0,12.48,12.41,47.59359,-54.27349
2023-01-27 20:34:01+00:00,248.0,9.19,244.0,11.4,12.41,47.59359,-54.27349
2023-01-27 20:44:01+00:00,245.0,10.84,240.0,12.5,12.41,47.59359,-54.27349
2023-01-27 20:54:01+00:00,244.0,9.77,253.0,11.05,12.41,47.59359,-54.27349
2023-01-27 21:04:01+00:00,254.0,9.98,253.0,11.47,12.41,47.59359,-54.27349
2023-01-27 21:14:00+00:00,253.0,10.59,252.0,12.27,12.41,47.59359,-54.27349
2023-01-27 21:24:00+00:00,257.0,9.82,259.0,10.87,12.41,47.59359,-54.27349
2023-01-27 21:34:00+00:00,253.0,9.37,255.0,11.07,12.41,47.59359,-54.27349
2023-01-27 21:44:00+00:00,247.0,9.2,250.0,10.83,12.41,47.59359,-54.27349
2023-01-27 21:54:00+00:00,241.0,9.41,244.0,11.3,12.41,47.59359,-54.27349
2023-01-27 22:04:00+00:00,244.0,8.73,248.0,10.6,12.41,47.59359,-54.27349
2023-01-27 22:14:00+00:00,253.0,10.96,252.0,12.54,12.41,47.59359,-54.27349
2023-01-27 22:24:00+00:00,241.0,11.3,241.0,13.05,12.41,47.59359,-54.27349
2023-01-27 22:34:00+00:00,249.0,9.89,255.0,11.15,12.41,47.59359,-54.27349
2023-01-27 22:44:00+00:00,257.0,11.27,266.0,15.59,12.41,47.59359,-54.27349
2023-01-27 22:54:00+00:00,258.0,13.04,255.0,17.05,12.41,47.59359,-54.27349
2023-01-27 23:04:00+00:00,259.0,11.93,260.0,15.25,12.41,47.59359,-54.27349
2023-01-27 23:14:01+00:00,271.0,11.42,272.0,12.91,12.33,47.59359,-54.27349
2023-01-27 23:24:01+00:00,279.0,13.14,276.0,15.45,12.33,47.59359,-54.27349
2023-01-27 23:34:01+00:00,272.0,13.43,275.0,16.92,12.33,47.59359,-54.27349
2023-01-27 23:44:01+00:00,258.0,11.1,258.0,13.05,12.33,47.59359,-54.27349
2023-01-27 23:54:01+00:00,262.0,9.78,267.0,11.84,12.33,47.59359,-54.27349
